EUTELSAT 117 WEST A     
1 39122U 13012A   19265.49041691 -.00000021  00000-0  00000+0 0  9994
2 39122   0.0190 264.8701 0002825 281.0175 234.9344  1.00271372 23803
BREEZE-M R/B            
1 39123U 13012B   19264.32332139  .00000040  00000-0  00000+0 0  9996
2 39123  17.8135 138.5715 5522962 269.6686  30.3219  2.05418003 48686
BREEZE-M DEB [TANK]     
1 39124U 13012C   19266.27504568  .00000863  00000-0  23030-3 0  9995
2 39124  49.5413  41.8267 5634802 210.1174 100.0788  4.57156944107602